Location: Mahannah Oil Field
(37.4664°N, 96.6003°W)
Time: 15:36:15
(UTC+00:00)

Vanguard 2 Rocket - Pass Details

Date: 24 January 2021
Orbit: 554 x 3325 km, 32.9° (Epoch: 06 March)

Event Time Altitude Azimuth Distance (km) Brightness Sun altitude
Rises 21:49:35 0° 246° (WSW) 6,737 12.7 17.9°
Reaches altitude 10° 21:54:42 10° 244° (WSW) 5,366 12.7 17.1°
Maximum altitude 22:08:47 60° 170° (S) 1,945 9.0 15.0°
Drops below altitude 10° 22:16:40 10° 92° (E) 3,127 9.2 13.8°
Sets 22:18:54 0° 88° (E) 3,831 9.6 13.4°
